Wind_Speed
12 12 11 11 10 10 9 9 8 8 7 7 7 7 7 7 7 7 7 7 8 8 9 9 9 9 9 9 10 10 10 10 10 10 10 10 9 9 9 9 9 8 8
11 11 10 10 9 9 8 8 7 7 6 7 6 6 6 6 7 7 7 7 7 8 8 8 8 9 9 9 9 10 10 9 10 10 10 10 9 9 9 9 9 9 9
11 10 10 9 9 8 8 7 7 6 6 6 6 6 6 6 6 6 6 6 6 7 7 7 8 8 8 8 8 9 9 9 9 9 9 9 9 9 9 9 8 9 8
10 9 9 9 8 8 7 7 6 6 6 6 6 6 5 5 5 5 5 5 5 6 6 7 7 7 8 8 7 8 8 8 8 8 8 8 8 8 8 8 8 8 8
9 9 8 8 8 8 7 7 6 6 6 6 6 5 5 4 4 4 5 5 5 5 5 6 6 7 7 7 7 7 7 7 8 8 8 8 8 8 8 8 7 7 7
8 8 7 7 7 7 7 7 7 6 6 6 6 6 5 5 4 4 4 4 4 4 5 5 5 6 6 6 6 6 7 7 8 7 7 7 7 7 7 8 7 7 7
8 7 7 7 7 7 7 7 7 7 6 6 6 6 5 5 5 4 3 3 3 4 4 5 5 5 6 6 6 5 6 6 7 7 6 6 6 6 6 7 7 7 7
8 7 6 6 7 7 7 7 7 7 6 6 6 5 5 5 5 4 3 3 4 4 4 4 4 5 5 5 5 5 5 5 6 6 6 5 5 5 5 6 6 6 6
7 7 6 6 7 7 6 6 6 6 6 6 5 5 5 5 4 4 4 3 4 4 4 4 4 4 4 4 4 4 4 5 5 5 4 4 4 4 4 4 5 5 5
8 7 7 7 7 7 6 6 6 6 6 6 5 4 4 4 4 4 3 3 3 3 3 3 3 3 4 4 4 3 3 4 3 3 3 3 3 3 3 3 4 4 4
9 8 7 7 7 7 6 6 6 6 6 5 4 4 4 3 3 3 3 2 2 2 2 2 3 3 3 3 3 3 3 3 3 2 2 2 2 2 2 2 3 3 3
10 9 8 7 7 7 6 6 6 6 6 5 4 3 3 3 3 2 1 1 2 2 1 1 2 2 2 2 2 2 2 2 2 2 1 1 1 1 1 2 2 2 2
9 9 8 7 7 7 6 6 6 6 5 4 4 3 3 2 2 2 1 1 1 1 1 1 1 1 2 2 2 2 1 1 1 1 0 0 0 1 1 1 1 2 1
10 9 7 7 7 7 6 5 6 6 5 4 4 4 2 2 2 1 1 1 1 1 0 0 0 0 1 1 1 2 1 1 1 0 1 0 0 1 1 2 1 2 2
10 9 8 7 7 6 6 6 6 5 5 4 3 3 2 2 1 1 1 2 2 2 2 2 2 2 2 2 2 1 1 1 1 1 1 1 1 1 2 2 2 2 2
12 10 9 8 7 7 6 7 7 6 5 4 4 3 3 2 2 2 3 3 3 2 3 3 3 3 3 3 3 2 2 2 2 2 2 2 2 2 2 2 2 2 2
12 11 9 9 8 8 8 8 8 7 6 5 4 4 4 3 3 3 3 4 4 4 4 4 4 4 4 4 4 3 3 3 3 3 3 3 3 3 3 3 3 3 3
12 11 10 9 9 9 8 8 8 8 7 6 6 6 5 4 4 4 4 4 4 5 5 5 5 5 5 6 5 4 4 4 4 4 4 4 4 4 4 4 4 4 4
12 11 10 10 10 9 9 9 9 8 8 7 7 7 6 5 5 5 5 5 5 5 5 6 6 6 7 7 7 6 6 6 6 6 6 5 5 5 5 5 5 6 6
12 11 11 10 10 9 9 9 9 8 8 8 7 8 7 7 6 6 6 6 6 6 6 7 8 8 8 8 8 8 8 8 8 8 7 8 8 7 8 8 8 8 8
11 10 10 10 10 9 9 9 9 9 9 8 7 8 8 7 6 6 6 6 6 6 7 7 8 9 9 9 9 9 9 10 10 9 9 9 10 10 10 10 11 11 11
10 10 10 10 10 10 10 10 10 9 9 9 8 8 8 7 7 6 6 6 6 7 8 8 8 9 9 10 10 10 10 11 11 11 11 11 12 12 12 13 13 13 13
10 11 10 10 10 10 10 10 10 9 9 9 9 9 8 8 7 7 6 7 7 8 9 9 9 9 10 11 11 11 12 12 12 11 12 12 13 14 14 15 14 14 15
11 12 11 10 10 10 10 10 10 10 9 9 9 9 9 9 8 8 7 7 7 8 9 11 10 11 11 12 13 12 13 13 14 13 14 14 15 15 16 16 16 16 17
12 12 12 10 10 11 10 10 10 10 9 9 9 9 9 9 9 8 8 8 9 9 10 11 11 12 12 13 14 14 14 14 15 16 16 16 16 16 16 17 18 19 19
11 12 11 10 11 11 11 10 10 10 10 10 10 10 9 9 9 10 10 10 9 10 10 10 12 12 13 14 15 15 16 16 16 17 18 18 18 18 18 19 18 20 20
Wind_Direction
74 73 70 68 64 59 55 54 55 51 50 53 54 58 63 69 78 82 86 90 95 100 101 100 100 100 99 97 98 99 99 99 97 96 95 94 93 90 87 86 86 87 84
73 72 68 66 63 58 54 50 49 47 46 50 51 54 61 68 76 81 84 88 91 95 98 98 101 100 100 98 97 98 100 101 100 98 94 91 90 88 86 84 85 85 85
71 69 66 63 60 56 52 46 42 42 42 42 44 48 56 65 73 79 84 87 90 93 96 100 99 100 99 96 96 99 100 99 99 99 95 92 89 86 85 84 84 84 86
66 65 63 59 55 52 49 44 40 38 39 39 40 43 48 57 67 73 80 86 89 92 94 95 93 96 98 97 96 98 97 97 99 97 95 93 90 85 84 84 84 83 83
60 59 58 55 53 50 48 46 42 38 37 37 37 38 43 52 60 66 76 83 87 88 90 90 89 91 96 95 94 99 99 100 98 95 92 92 90 86 85 84 84 81 81
56 54 52 53 52 49 47 45 42 38 36 36 35 35 39 45 49 57 69 79 84 85 84 84 84 88 91 91 92 100 98 100 98 93 92 93 89 87 85 84 84 82 80
51 51 49 50 49 47 45 43 40 37 35 33 32 31 35 40 43 49 60 68 77 84 82 83 84 86 88 86 91 99 99 97 95 92 91 91 89 86 87 85 81 80 79
46 46 47 48 49 48 45 41 35 33 33 31 30 29 33 36 36 41 53 61 72 77 81 83 83 84 86 86 90 94 93 94 97 92 89 87 87 88 88 86 82 79 76
44 46 45 46 46 45 43 38 34 29 27 24 24 27 31 34 36 42 53 63 66 68 74 80 81 82 85 83 85 90 97 97 96 92 91 87 82 81 84 81 80 79 77
42 44 43 41 40 39 36 32 29 26 23 20 21 26 29 32 37 44 55 63 65 70 73 73 76 81 83 84 87 88 101 102 98 94 93 89 79 77 80 77 72 70 72
40 41 42 40 40 40 37 31 24 22 19 18 21 25 25 32 35 41 56 63 62 64 67 69 78 80 84 92 97 93 105 106 107 102 91 80 77 75 73 71 66 65 66
38 38 37 39 42 41 37 29 25 24 19 21 24 20 19 24 27 25 49 61 58 62 61 68 82 88 102 111 108 100 94 100 101 100 93 70 71 74 64 52 50 53 51
38 40 37 35 36 37 35 29 28 27 22 24 26 23 23 17 12 11 22 22 19 38 50 59 92 101 121 124 126 111 92 102 104 91 36 335 46 38 36 24 26 31 21
42 41 40 36 33 34 30 26 23 17 15 17 20 14 3 351 342 328 342 339 318 295 291 320 194 150 162 165 158 142 150 154 163 294 327 315 322 339 347 343 349 352 348
42 42 43 42 39 41 37 28 18 17 15 10 7 3 348 337 335 305 320 329 318 292 261 247 240 229 211 202 203 200 212 224 229 272 296 310 325 326 319 322 328 335 336
38 40 42 41 39 41 39 32 21 19 15 8 1 342 329 315 291 280 283 293 292 281 257 245 251 236 230 232 230 232 231 244 255 280 298 312 323 328 320 315 315 321 326
38 39 39 37 34 37 39 35 26 21 18 10 357 346 334 318 289 283 282 286 278 269 263 253 252 248 240 240 239 242 239 243 258 277 288 289 295 301 301 300 298 300 303
34 34 35 32 29 30 33 32 26 23 24 21 10 358 348 324 301 290 282 278 276 265 262 257 252 253 251 245 241 241 244 246 257 271 278 278 284 285 283 284 287 289 294
31 30 30 29 27 25 24 21 18 15 11 7 359 351 345 325 305 293 278 269 268 264 260 256 250 248 247 246 244 243 246 251 255 263 268 268 272 275 274 275 276 281 285
29 29 24 20 18 17 16 13 9 6 1 1 354 343 336 323 309 298 287 278 269 262 259 257 252 247 246 245 245 248 252 256 258 259 262 263 267 271 274 274 275 277 279
20 22 18 13 9 8 10 8 5 1 358 354 354 349 344 331 320 306 294 281 265 257 257 255 254 248 244 246 248 252 255 258 261 261 264 266 268 270 273 274 274 274 274
12 11 11 8 4 1 1 360 1 358 357 354 349 345 344 334 328 314 294 286 274 260 260 256 253 250 246 247 249 254 257 257 259 260 264 265 266 266 268 271 270 270 272
360 360 0 0 357 356 352 351 351 349 349 347 341 332 330 323 314 308 301 296 281 268 264 261 255 253 252 251 251 255 257 258 260 263 265 265 267 268 267 267 267 269 268
352 352 351 354 355 354 351 347 347 347 341 339 335 330 325 318 312 301 296 293 286 279 269 260 259 260 261 260 258 257 258 259 260 262 266 267 269 269 268 269 270 271 267
347 344 343 347 352 352 348 343 341 345 343 340 338 334 328 327 321 312 302 296 285 279 272 265 261 264 265 263 261 261 261 261 262 264 266 268 269 270 269 269 269 269 271
341 342 341 347 348 348 347 342 339 342 343 343 338 335 332 329 324 316 305 299 286 274 272 267 267 268 267 264 262 261 262 263 266 267 266 267 268 267 270 270 270 271 271
Height
5902 5901 5901 5901 5901 5901 5900 5900 5900 5900 5899 5899 5898 5897 5897 5896 5895 5895 5895 5894 5894 5894 5894 5894 5894 5894 5894 5894 5894 5893 5893 5893 5893 5893 5893 5893 5893 5893 5893 5893 5892 5892 5892
5903 5903 5903 5903 5902 5902 5902 5902 5901 5901 5901 5900 5900 5899 5898 5898 5897 5897 5896 5896 5896 5895 5895 5895 5895 5895 5895 5895 5895 5895 5895 5894 5894 5894 5894 5894 5894 5894 5894 5894 5894 5893 5893
5905 5905 5904 5904 5904 5904 5903 5903 5903 5902 5902 5902 5901 5900 5900 5899 5899 5898 5898 5898 5897 5897 5897 5896 5896 5896 5896 5896 5896 5896 5896 5896 5895 5895 5896 5896 5896 5896 5895 5895 5895 5895 5894
5906 5906 5906 5905 5905 5905 5905 5904 5904 5904 5903 5903 5902 5902 5901 5901 5900 5900 5899 5899 5899 5898 5898 5898 5898 5898 5898 5898 5897 5897 5897 5897 5897 5897 5897 5897 5897 5897 5896 5896 5896 5896 5896
5907 5907 5907 5907 5906 5906 5906 5906 5905 5905 5904 5904 5903 5903 5902 5902 5901 5901 5900 5900 5900 5899 5899 5899 5899 5899 5899 5899 5899 5898 5898 5898 5898 5898 5898 5898 5898 5898 5897 5897 5897 5897 5897
5909 5908 5908 5908 5908 5907 5907 5907 5906 5906 5906 5905 5904 5904 5903 5903 5902 5902 5901 5901 5901 5901 5900 5900 5900 5900 5900 5900 5900 5899 5899 5899 5899 5899 5899 5899 5899 5899 5898 5898 5898 5898 5898
5910 5910 5909 5909 5909 5908 5908 5908 5907 5907 5906 5906 5906 5905 5904 5904 5904 5903 5903 5902 5902 5902 5902 5901 5901 5901 5901 5901 5901 5900 5900 5900 5900 5900 5900 5900 5900 5900 5899 5899 5899 5898 5898
5911 5911 5910 5910 5909 5909 5909 5909 5908 5908 5907 5907 5906 5906 5905 5905 5904 5904 5904 5903 5903 5903 5902 5902 5902 5902 5902 5902 5902 5902 5901 5901 5901 5901 5901 5901 5901 5901 5900 5900 5900 5899 5899
5911 5911 5911 5911 5910 5910 5909 5909 5909 5908 5908 5907 5907 5906 5906 5905 5905 5905 5904 5904 5904 5903 5903 5903 5903 5903 5903 5903 5903 5903 5902 5902 5902 5902 5902 5902 5902 5902 5901 5901 5900 5900 5900
5912 5912 5912 5911 5911 5910 5910 5909 5909 5908 5908 5907 5907 5907 5906 5906 5905 5905 5905 5905 5904 5904 5904 5904 5904 5904 5904 5904 5904 5903 5903 5903 5903 5903 5902 5902 5902 5902 5902 5901 5901 5901 5900
5913 5912 5912 5912 5911 5911 5910 5910 5909 5909 5908 5908 5907 5907 5906 5906 5906 5906 5905 5905 5905 5905 5905 5905 5905 5905 5905 5904 5904 5904 5904 5904 5903 5904 5903 5903 5903 5903 5902 5902 5902 5901 5901
5914 5913 5912 5912 5912 5911 5911 5910 5909 5909 5908 5908 5907 5907 5906 5906 5906 5906 5906 5905 5905 5905 5905 5905 5905 5905 5905 5905 5905 5905 5904 5904 5904 5904 5904 5904 5904 5903 5903 5902 5902 5901 5901
5915 5914 5913 5913 5912 5912 5911 5911 5910 5909 5908 5908 5907 5907 5906 5906 5906 5906 5906 5905 5905 5905 5905 5905 5905 5905 5905 5905 5905 5905 5905 5905 5905 5905 5905 5904 5904 5903 5903 5902 5902 5901 5901
5916 5915 5914 5913 5912 5912 5911 5911 5910 5909 5908 5908 5907 5907 5906 5906 5906 5906 5906 5905 5905 5905 5905 5905 5905 5905 5905 5905 5905 5905 5905 5905 5905 5905 5904 5904 5904 5904 5903 5903 5902 5902 5901
5916 5916 5915 5914 5913 5912 5911 5911 5910 5909 5908 5908 5907 5907 5906 5906 5906 5906 5905 5905 5905 5905 5905 5905 5905 5905 5905 5905 5905 5905 5905 5905 5905 5905 5905 5904 5904 5904 5903 5903 5902 5902 5901
5917 5916 5915 5914 5914 5913 5912 5911 5910 5909 5908 5907 5907 5906 5906 5905 5905 5905 5905 5904 5904 5904 5904 5904 5904 5904 5904 5904 5905 5905 5905 5905 5905 5905 5904 5904 5904 5903 5903 5903 5902 5901 5901
5918 5916 5915 5914 5914 5913 5912 5911 5910 5909 5908 5907 5906 5906 5905 5905 5904 5904 5904 5903 5903 5903 5903 5903 5903 5904 5904 5904 5904 5904 5904 5904 5904 5904 5904 5903 5903 5903 5903 5902 5902 5901 5901
5918 5917 5916 5915 5914 5913 5912 5911 5910 5909 5908 5907 5906 5905 5904 5903 5903 5902 5902 5902 5902 5901 5902 5902 5902 5902 5903 5903 5903 5903 5903 5903 5903 5903 5903 5903 5902 5902 5902 5902 5901 5901 5900
5919 5918 5916 5915 5914 5913 5912 5911 5909 5908 5907 5906 5905 5904 5903 5902 5901 5901 5900 5900 5900 5900 5900 5900 5901 5901 5901 5902 5902 5902 5902 5902 5902 5902 5902 5902 5901 5901 5901 5900 5900 5900 5899
5919 5919 5917 5916 5914 5913 5912 5910 5909 5907 5906 5905 5904 5903 5902 5901 5900 5899 5898 5898 5898 5898 5898 5899 5899 5899 5900 5900 5900 5900 5901 5901 5901 5901 5901 5900 5900 5900 5899 5899 5898 5898 5898
5921 5919 5918 5916 5915 5913 5911 5910 5908 5906 5905 5904 5903 5902 5900 5899 5898 5897 5897 5896 5896 5896 5896 5897 5897 5897 5897 5898 5898 5899 5899 5899 5899 5898 5899 5899 5898 5898 5898 5897 5896 5896 5896
5921 5919 5918 5916 5915 5913 5911 5909 5908 5906 5904 5903 5901 5900 5899 5898 5897 5896 5895 5894 5894 5894 5895 5895 5895 5895 5895 5895 5896 5896 5897 5897 5896 5896 5896 5896 5896 5895 5895 5894 5894 5893 5893
5921 5920 5918 5916 5914 5912 5911 5909 5907 5905 5903 5902 5900 5899 5897 5896 5895 5894 5893 5893 5892 5892 5892 5893 5893 5893 5893 5893 5893 5894 5894 5894 5894 5894 5894 5894 5893 5892 5892 5891 5890 5890 5889
5920 5919 5916 5914 5913 5911 5909 5907 5905 5903 5902 5900 5899 5897 5896 5894 5892 5892 5891 5891 5890 5890 5890 5890 5890 5890 5890 5891 5890 5891 5891 5891 5891 5891 5891 5890 5890 5889 5888 5887 5886 5886 5885
5919 5918 5916 5913 5911 5909 5908 5906 5904 5902 5900 5899 5897 5896 5894 5892 5891 5890 5889 5888 5888 5887 5887 5887 5887 5887 5887 5887 5887 5887 5888 5888 5888 5888 5887 5887 5886 5885 5885 5884 5883 5882 5881
5918 5916 5913 5911 5909 5907 5906 5905 5903 5901 5899 5897 5896 5894 5892 5890 5889 5887 5886 5885 5884 5884 5884 5884 5884 5884 5884 5884 5883 5883 5884 5884 5884 5883 5883 5882 5882 5881 5880 5879 5879 5878 5877